{"data":{"norad_id":59851,"epoch":"2026-09-21T07:17:39.903648Z","epoch_age_seconds":105044,"freshness":"FRESH","line1":"1 59851U 24097S   26264.30393407  .00000257  00000+0  18844-4 0  9991","line2":"2 59851  43.0013 249.6208 0001196 272.1044  87.9671 15.27578739131837","mean_motion":15.27578739,"eccentricity":0.0001196,"inclination_deg":43.0013,"raan_deg":249.6208,"arg_perigee_deg":272.1044,"mean_anomaly_deg":87.9671,"bstar":1.8844e-5,"rev_number":13183,"period_min":94.26682652985,"perigee_km":482.23227362121,"apogee_km":483.87347023858,"semimajor_km":6861.1898719299,"source":"CELESTRAK","updated_at":"2026-09-22T09:00:49.098661Z"}}